Date,TemperatureHighF,TemperatureAvgF,TemperatureLowF,DewpointHighF,DewpointAvgF,DewpointLowF,HumidityHigh,HumidityAvg,HumidityLow,PressureMaxIn,PressureMinIn,WindSpeedMaxMPH,WindSpeedAvgMPH,GustSpeedMaxMPH,PrecipitationSumIn
2013-1-1,19.0,7.5,-1.0,9.0,3.9,-3.0,92,85,65,0.00,40.00,1,0,5,0.00
2013-1-2,22.0,5.2,-2.0,9.0,1.2,-4.0,94,84,56,0.00,40.00,2,1,4,0.00
2013-1-3,34.0,12.6,2.0,15.0,8.1,0.0,99,84,46,0.00,40.00,2,1,7,0.05
2013-1-4,32.0,13.5,7.0,13.0,8.4,5.0,95,82,43,0.00,40.00,2,1,6,0.01
2013-1-5,33.0,14.5,4.0,12.0,7.7,1.0,92,77,35,0.00,40.00,2,1,6,0.01
2013-1-6,33.0,20.6,14.0,19.0,13.5,11.0,89,75,43,0.00,40.00,3,1,13,0.00
2013-1-7,23.0,16.4,9.0,17.0,14.0,8.0,97,90,65,0.00,40.00,1,1,6,0.00
2013-1-8,28.0,22.1,17.0,27.0,21.1,16.0,99,96,90,0.00,40.00,4,1,10,0.00
2013-1-9,46.0,31.4,27.0,32.0,27.0,15.0,98,85,42,0.00,40.00,4,2,14,0.20
2013-1-10,37.0,26.5,14.0,31.0,22.8,12.0,98,87,42,0.00,40.00,5,2,21,0.01
2013-1-11,14.0,7.7,-5.0,12.0,4.2,-8.0,94,86,73,0.00,40.00,0,-733,7,0.00
2013-1-12,17.0,-3.6,-14.0,1.0,-8.5,-18.0,88,80,48,0.00,40.00,2,-488,164,0.00
2013-1-13,13.0,-2.0,-15.0,0.0,-7.8,-19.0,88,77,52,0.00,40.00,1,1,6,0.00
2013-1-14,7.0,-5.8,-15.0,-4.0,-10.5,-19.0,86,80,57,0.00,40.00,2,0,5,0.00
2013-1-15,11.0,3.4,-6.0,5.0,-0.2,-9.0,91,85,74,0.00,40.00,1,0,7,0.00
2013-1-18,33.0,14.8,8.0,22.0,11.8,6.0,99,89,48,0.00,40.00,2,1,5,0.01
2013-1-19,39.0,18.1,8.0,20.0,14.0,6.0,97,86,42,0.00,40.00,1,0,6,0.00
2013-1-20,36.0,18.7,12.0,16.0,12.2,11.0,96,79,39,0.00,40.00,2,1,7,0.00
2013-1-21,41.0,21.2,10.0,15.0,12.6,9.0,96,74,32,0.00,40.00,1,0,7,0.00
2013-1-22,44.0,24.3,13.0,17.0,13.8,10.0,93,68,29,0.00,40.00,2,0,7,0.00
2013-1-23,47.0,30.4,22.0,16.0,10.5,4.0,65,45,20,0.00,40.00,3,1,11,0.01
2013-1-24,37.0,31.2,29.0,32.0,28.4,13.0,100,91,40,0.00,40.00,5,2,17,0.01
2013-1-25,37.0,32.0,29.0,32.0,29.2,27.0,100,89,74,0.00,40.00,3,2,11,0.00
2013-1-26,39.0,34.0,31.0,35.0,32.8,30.0,100,95,87,0.00,40.00,3,2,10,0.01
2013-1-27,33.0,27.5,20.0,33.0,26.5,19.0,100,96,87,0.00,40.00,2,1,9,0.01
2013-1-28,23.0,17.6,12.0,19.0,14.7,10.0,96,89,72,0.00,40.00,1,-940,6,0.00
2013-1-29,29.0,15.3,10.0,18.0,12.6,9.0,97,89,59,0.00,40.00,0,-999,135,0.00
2013-1-30,28.0,22.0,11.0,27.0,20.7,10.0,100,94,84,0.00,40.00,4,-253,18,0.00
2013-1-31,33.0,27.7,23.0,28.0,25.9,22.0,99,92,79,0.00,40.00,2,1,9,0.00
2013-2-1,31.0,27.5,25.0,28.0,26.4,23.0,100,96,85,0.00,40.00,4,2,12,0.00
2013-2-2,33.0,25.8,19.0,28.0,24.1,18.0,100,93,78,0.00,40.00,2,1,8,0.00
2013-2-3,39.0,22.8,14.0,27.0,18.9,13.0,99,87,53,0.00,40.00,2,1,7,0.01
2013-2-4,31.0,23.3,18.0,27.0,22.2,18.0,100,95,84,0.00,40.00,1,1,6,0.01
2013-2-5,43.0,31.7,23.0,29.0,24.6,20.0,99,77,47,0.00,40.00,4,1,10,0.01
2013-2-6,26.0,22.6,19.0,24.0,22.2,19.0,100,98,89,0.00,40.00,2,1,8,0.01
2013-2-7,40.0,22.0,10.0,21.0,16.0,8.0,98,81,41,0.00,40.00,2,1,7,0.00
2013-2-8,47.0,29.0,19.0,25.0,18.6,13.0,93,69,31,0.00,40.00,2,1,9,0.07
2013-2-9,40.0,26.8,20.0,21.0,16.9,12.0,96,68,32,0.00,40.00,3,1,12,0.01
2013-2-10,31.0,18.2,3.0,19.0,6.3,-2.0,97,64,27,0.00,40.00,2,1,13,0.01
2013-2-11,31.0,10.1,-3.0,5.0,-1.2,-10.0,87,64,28,0.00,40.00,2,1,12,0.00
2013-2-12,24.0,17.4,9.0,18.0,13.7,5.0,95,85,77,0.00,40.00,3,1,8,0.00
2013-2-13,26.0,23.5,19.0,25.0,22.4,18.0,99,95,92,0.00,40.00,3,2,10,0.00
2013-2-14,33.0,24.5,19.0,25.0,20.3,17.0,100,85,54,0.00,40.00,3,2,11,0.01
2013-2-15,42.0,23.7,13.0,23.0,18.4,12.0,99,83,38,0.00,40.00,3,1,8,0.03
2013-2-16,42.0,29.7,23.0,23.0,21.7,19.0,91,73,45,0.00,40.00,3,1,9,0.06
2013-2-17,33.0,25.0,15.0,22.0,17.9,12.0,97,76,51,0.00,40.00,5,2,18,0.01
2013-2-18,34.0,19.4,9.0,15.0,11.0,5.0,93,74,29,0.00,40.00,3,2,12,0.00
2013-2-19,35.0,22.2,8.0,26.0,13.3,4.0,100,72,33,0.00,40.00,5,1,17,0.00
2013-2-20,43.0,26.6,18.0,25.0,19.5,14.0,99,79,35,0.00,40.00,2,1,9,0.05
2013-2-21,26.0,19.5,13.0,21.0,16.5,12.0,97,88,69,0.00,40.00,2,1,7,0.01
2013-2-22,27.0,19.3,13.0,19.0,16.1,12.0,95,87,68,0.00,40.00,4,2,13,0.00
2013-2-23,26.0,21.0,12.0,25.0,19.3,11.0,97,93,82,0.00,40.00,5,3,15,0.00
2013-2-24,35.0,14.6,3.0,19.0,8.6,1.0,97,80,48,0.00,40.00,3,1,9,0.08
2013-2-25,29.0,18.0,5.0,19.0,13.1,3.0,95,82,54,0.00,40.00,4,1,9,0.02
2013-2-26,33.0,17.7,8.0,19.0,13.6,6.0,98,85,51,0.00,40.00,3,1,10,0.00
2013-2-27,32.0,17.9,11.0,17.0,12.6,9.0,97,81,53,0.00,40.00,2,1,9,0.00
2013-2-28,29.0,21.2,14.0,22.0,17.9,12.0,98,87,70,0.00,40.00,3,1,8,0.00
2013-3-1,32.0,27.3,21.0,29.0,26.2,20.0,100,95,85,0.00,40.00,2,1,8,0.00
2013-3-2,50.0,33.8,29.0,33.0,30.5,29.0,100,89,52,0.00,40.00,2,1,7,0.39
2013-3-3,35.0,30.3,19.0,33.0,29.0,17.0,100,95,79,0.00,40.00,61,6,21,0.02
2013-3-4,31.0,14.2,6.0,17.0,8.0,3.0,97,79,37,0.00,40.00,2,1,9,0.00
2013-3-5,45.0,25.1,5.0,22.0,13.6,2.0,91,65,27,0.00,40.00,2,1,10,0.09
2013-3-6,41.0,30.9,23.0,33.0,26.8,16.0,100,86,43,0.00,40.00,5,3,20,0.09
2013-3-7,42.0,27.8,18.0,27.0,21.5,17.0,100,80,40,0.00,40.00,4,1,12,0.10
2013-3-8,40.0,30.4,22.0,32.0,27.5,22.0,100,90,72,0.00,40.00,1,1,7,0.13
2013-3-9,46.0,25.2,17.0,22.0,17.0,10.0,100,77,23,0.00,40.00,2,1,11,0.26
2013-3-10,46.0,29.5,16.0,22.0,18.6,11.0,83,66,32,0.00,40.00,2,1,9,0.14
2013-3-11,45.0,30.6,21.0,25.0,20.7,16.0,93,68,38,0.00,40.00,4,2,15,0.11
2013-3-12,46.0,31.6,18.0,29.0,18.2,6.0,82,60,30,0.00,40.00,3,2,12,0.05
2013-3-13,54.0,41.5,34.0,31.0,28.6,26.0,84,62,34,0.00,40.00,4,2,13,0.05
2013-3-14,61.0,47.9,33.0,28.0,24.5,20.0,79,43,25,0.00,40.00,4,2,12,0.02
2013-3-15,56.0,43.1,37.0,27.0,24.2,19.0,60,48,27,0.00,40.00,4,2,13,0.00
2013-3-16,48.0,37.1,29.0,29.0,23.9,16.0,91,63,28,0.00,40.00,4,2,17,0.00
2013-3-17,36.0,26.0,15.0,31.0,22.3,9.0,100,86,34,0.00,40.00,8,4,25,0.01
2013-3-18,34.0,20.4,9.0,23.0,14.1,7.0,91,78,47,0.00,40.00,4,2,17,0.01
2013-3-19,43.0,21.0,9.0,15.0,3.4,-10.0,91,56,11,0.00,40.00,3,1,11,0.14
2013-3-20,36.0,33.0,23.0,34.0,26.9,-11.0,98,83,14,0.00,40.00,5,3,16,0.15
2013-3-21,37.0,27.6,19.0,33.0,25.0,18.0,100,91,55,0.00,40.00,7,3,23,0.08
2013-3-22,35.0,19.1,8.0,22.0,14.6,6.0,98,84,43,0.00,40.00,4,1,12,0.00
2013-3-23,36.0,11.9,0.0,14.0,5.9,-3.0,95,80,32,0.00,40.00,2,1,9,0.05
2013-3-24,34.0,18.5,3.0,13.0,7.2,1.0,95,66,33,0.00,40.00,2,1,8,0.01
2013-3-25,42.0,22.0,5.0,14.0,7.9,2.0,88,60,23,0.00,40.00,2,1,11,0.17
2013-3-26,49.0,33.4,15.0,30.0,25.3,12.0,99,75,43,0.00,40.00,4,2,12,0.34
2013-3-27,51.0,34.5,28.0,31.0,27.7,24.0,100,79,43,0.00,40.00,4,1,14,0.22
2013-3-28,60.0,44.8,34.0,24.0,22.7,21.0,64,44,25,0.00,40.00,4,2,10,0.21
2013-3-29,60.0,40.0,33.0,36.0,31.1,23.0,99,73,33,0.00,40.00,3,2,13,0.04
2013-3-30,56.0,39.3,32.0,35.0,26.6,-99.9,100,71,27,0.00,40.00,3,1,11,0.04
2013-3-31,61.0,44.0,30.0,26.0,20.7,16.0,74,43,18,0.00,40.00,4,2,13,0.00
2013-4-1,65.0,44.3,32.0,22.0,19.2,16.0,66,40,16,0.00,40.00,2,1,9,0.00
2013-4-2,62.0,41.6,30.0,33.0,24.1,14.0,100,59,16,0.00,40.00,2,1,9,0.00
2013-4-3,61.0,42.9,32.0,31.0,25.5,20.0,87,55,20,0.00,40.00,2,1,11,0.00
2013-4-4,61.0,49.2,39.0,34.0,29.7,27.0,74,48,31,0.00,40.00,4,2,16,0.00
2013-4-5,49.0,38.9,32.0,38.0,33.9,29.0,99,83,53,0.00,40.00,6,3,21,0.43
2013-4-6,41.0,36.6,32.0,37.0,31.1,26.0,95,81,69,0.00,40.00,4,2,17,0.12
2013-4-7,38.0,34.2,32.0,35.0,31.1,28.0,99,88,81,0.00,40.00,6,3,20,0.32
2013-4-8,44.0,31.2,23.0,31.0,24.6,12.0,100,78,54,0.00,40.00,4,2,19,0.07
2013-4-9,44.0,27.0,19.0,20.0,12.2,7.0,76,55,27,0.00,40.00,3,2,16,0.01
2013-4-10,47.0,33.3,14.0,27.0,17.1,5.0,81,55,23,0.00,40.00,3,1,13,0.00
2013-4-11,53.0,37.8,29.0,33.0,27.7,18.0,100,74,25,0.00,40.00,3,-32,13,0.03
2013-4-12,53.0,33.6,20.0,31.0,20.7,9.0,100,68,19,0.00,40.00,183,-208,12,0.14
2013-4-13,40.0,32.9,23.0,34.0,26.9,15.0,100,80,41,0.00,40.00,7,4,26,0.03
2013-4-14,40.0,25.6,16.0,16.0,11.8,7.0,87,60,29,0.00,40.00,5,2,15,0.11
2013-4-15,39.0,25.4,15.0,26.0,16.4,11.0,94,71,38,0.00,40.00,2,1,10,0.02
2013-4-16,37.0,24.7,16.0,17.0,11.4,8.0,89,60,31,0.00,40.00,4,1,12,0.04
2013-4-17,38.0,20.6,7.0,8.0,4.4,-1.0,80,54,21,0.00,40.00,3,1,12,0.05
2013-4-18,47.0,27.0,8.0,14.0,7.8,1.0,83,48,23,0.00,40.00,3,2,12,0.04
2013-4-19,41.0,32.8,28.0,33.0,24.7,13.0,100,73,45,0.00,40.00,5,2,12,0.01
2013-4-20,47.0,34.9,32.0,39.0,33.3,30.0,100,94,74,0.00,40.00,5,2,13,0.53
2013-4-21,45.0,36.6,29.0,31.0,27.2,21.0,100,71,45,0.00,40.00,7,3,26,0.25
2013-4-22,40.0,29.6,20.0,29.0,20.5,9.0,100,72,40,0.00,40.00,3,1,14,0.11
2013-4-23,45.0,27.4,9.0,18.0,7.2,-8.0,90,50,14,0.00,40.00,3,1,11,0.08
2013-4-24,52.0,34.2,19.0,18.0,14.0,8.0,84,50,20,0.00,40.00,3,1,12,0.00
2013-4-25,59.0,45.2,32.0,15.0,11.2,5.0,47,27,12,0.00,40.00,5,3,16,0.00
2013-4-26,65.0,48.1,30.0,22.0,15.9,10.0,59,31,13,0.00,40.00,3,2,12,0.00
2013-4-27,65.0,52.9,33.0,25.0,9.7,-99.9,68,27,14,0.00,40.00,5,3,18,0.00
2013-4-28,54.0,47.6,42.0,36.0,18.9,-99.9,79,40,32,0.00,40.00,7,3,19,0.00
2013-4-29,52.0,42.9,37.0,30.0,22.6,16.0,52,45,40,0.00,40.00,9,5,32,0.00
2013-4-30,43.0,34.6,25.0,23.0,15.2,7.0,88,49,28,0.00,40.00,3,1,10,0.00
2013-5-1,45.0,31.9,25.0,20.0,13.1,4.0,77,50,21,0.00,40.00,2,1,12,0.00
2013-5-2,56.0,39.4,24.0,13.0,8.5,5.0,54,31,13,0.00,40.00,3,1,12,0.00
2013-5-3,60.0,46.1,32.0,22.0,15.4,7.0,48,31,16,0.00,40.00,2,1,10,0.00
2013-5-4,57.0,42.9,33.0,34.0,28.6,22.0,86,58,36,0.00,40.00,4,2,16,0.00
2013-5-5,63.0,43.8,34.0,40.0,29.7,24.0,97,62,24,0.00,40.00,3,2,15,0.01
2013-5-6,66.0,48.4,33.0,34.0,29.5,24.0,95,56,21,0.00,40.00,2,1,8,0.01
2013-5-7,70.0,48.0,34.0,41.0,31.7,22.0,99,60,16,0.00,40.00,2,1,12,0.00
2013-5-8,70.0,49.2,34.0,37.0,29.2,22.0,100,58,17,0.00,40.00,2,1,13,0.00
2013-5-9,68.0,52.3,37.0,37.0,30.4,24.0,81,48,22,0.00,40.00,2,1,11,0.00
2013-5-10,73.0,52.0,37.0,36.0,26.6,19.0,75,44,13,0.00,40.00,3,1,19,0.00
2013-5-11,72.0,56.7,40.0,34.0,27.4,-99.9,65,38,15,0.00,40.00,2,1,10,0.00
2013-5-12,79.0,65.1,46.0,37.0,32.4,29.0,60,33,17,0.00,40.00,4,2,12,0.00
2013-5-13,79.0,67.9,48.0,36.0,30.3,27.0,54,27,16,0.00,40.00,6,4,22,0.00
2013-5-14,74.0,61.5,44.0,35.0,29.0,22.0,56,31,14,0.00,40.00,5,3,25,0.00
2013-5-15,75.0,57.8,41.0,34.0,30.4,26.0,63,39,19,0.00,40.00,4,2,14,0.00
2013-5-16,64.0,47.8,43.0,44.0,19.4,-99.9,97,63,37,0.00,40.00,3,2,14,0.09
2013-5-17,48.0,43.6,38.0,45.0,38.0,-99.9,100,93,85,0.00,40.00,3,1,10,0.40
2013-5-18,42.0,39.6,37.0,41.0,38.7,36.0,100,97,89,0.00,40.00,2,1,7,1.19
2013-5-19,44.0,40.1,36.0,43.0,39.3,36.0,100,97,92,0.00,40.00,1,1,7,0.53
2013-5-20,58.0,44.6,34.0,47.0,40.5,34.0,100,87,58,0.00,40.00,2,1,9,0.14
2013-5-21,65.0,48.6,33.0,40.0,14.2,-99.9,100,58,45,0.00,40.00,3,1,10,0.01
2013-5-22,66.0,49.8,36.0,41.0,35.0,27.0,80,59,25,0.00,40.00,6,2,19,0.00
2013-5-23,65.0,44.3,32.0,40.0,32.5,27.0,95,68,32,0.00,40.00,5,1,25,0.00
2013-5-24,60.0,45.1,32.0,34.0,24.3,18.0,100,51,20,0.00,40.00,5,3,19,0.06
2013-5-25,67.0,52.8,38.0,34.0,26.0,12.0,55,36,21,0.00,40.00,3,2,15,0.02
2013-5-26,71.0,52.9,40.0,41.0,-25.8,-99.9,89,26,33,0.00,40.00,5,2,16,0.01
2013-5-27,57.0,46.3,38.0,41.0,35.0,32.0,96,67,38,0.00,40.00,4,2,15,0.02
2013-5-28,55.0,43.6,37.0,43.0,38.7,29.0,100,84,54,0.00,40.00,3,1,16,0.24
2013-5-29,51.0,40.8,38.0,47.0,40.0,37.0,100,97,85,0.00,40.00,3,1,11,0.67
2013-5-30,54.0,40.5,35.0,43.0,37.0,34.0,100,89,54,0.00,40.00,4,2,14,0.44
2013-5-31,57.0,42.8,32.0,37.0,32.5,29.0,100,71,38,0.00,40.00,3,1,13,0.14
2013-6-1,66.0,48.3,31.0,39.0,30.3,22.0,92,57,24,0.00,40.00,3,1,10,0.01
2013-6-2,76.0,59.5,41.0,40.0,33.1,27.0,68,41,19,0.00,40.00,6,3,22,0.00
2013-6-3,58.0,46.7,33.0,41.0,33.6,30.0,90,63,38,0.00,40.00,5,2,13,0.00
2013-6-4,63.0,48.4,38.0,37.0,32.4,27.0,87,58,28,0.00,40.00,2,1,8,0.00
2013-6-5,70.0,52.2,32.0,37.0,32.2,27.0,89,52,25,0.00,40.00,2,1,12,0.00
2013-6-6,74.0,59.7,45.0,42.0,36.0,31.0,66,44,25,0.00,40.00,2,1,8,0.00
2013-6-7,78.0,61.7,46.0,45.0,39.3,36.0,71,47,25,0.00,40.00,4,2,16,0.00
2013-6-8,74.0,60.2,43.0,43.0,37.9,33.0,75,47,22,0.00,40.00,3,2,12,0.00
2013-6-9,81.0,64.9,46.0,44.0,36.7,32.0,64,38,23,0.00,40.00,6,3,20,0.00
2013-6-10,82.0,71.6,59.0,49.0,38.1,14.0,45,31,12,0.00,40.00,5,3,19,0.00
2013-6-11,75.0,64.8,50.0,46.0,34.2,13.0,58,35,12,0.00,40.00,6,3,24,0.00
2013-6-12,64.0,54.5,45.0,51.0,45.1,37.0,96,73,44,0.00,40.00,5,2,20,0.10
2013-6-13,71.0,54.3,41.0,58.0,42.8,34.0,93,69,35,0.00,40.00,5,2,18,0.10
2013-6-14,59.0,46.6,36.0,39.0,31.0,25.0,91,57,31,0.00,40.00,7,2,16,0.01
2013-6-15,74.0,55.8,35.0,36.0,28.7,21.0,71,40,15,0.00,40.00,3,2,11,0.00
2013-6-16,81.0,66.7,46.0,38.0,29.9,22.0,53,28,15,0.00,40.00,6,2,17,0.00
2013-6-17,79.0,61.9,46.0,34.0,30.3,20.0,59,36,14,0.00,40.00,4,2,14,0.00
2013-6-18,82.0,70.1,53.0,43.0,30.8,17.0,47,25,12,0.00,40.00,6,2,15,0.01
2013-6-19,69.0,54.6,35.0,41.0,35.1,27.0,93,52,29,0.00,40.00,3,2,12,0.16
2013-6-20,57.0,40.6,33.0,34.0,29.4,25.0,93,66,40,0.00,40.00,4,2,16,0.16
2013-6-22,60.0,51.9,43.0,35.0,31.2,27.0,58,46,36,0.00,40.00,3,2,20,0.00
2013-6-23,72.0,57.2,38.0,35.0,29.4,25.0,61,37,22,0.00,40.00,3,2,15,0.00
2013-6-24,74.0,64.1,48.0,48.0,42.2,28.0,94,48,27,0.00,40.00,3,2,13,0.05
2013-6-25,65.0,53.1,45.0,51.0,46.8,44.0,100,82,46,0.00,40.00,5,2,15,0.27
2013-6-26,75.0,60.2,50.0,52.0,47.3,41.0,100,67,32,0.00,40.00,6,3,19,0.09
2013-6-27,84.0,77.5,59.0,48.0,44.9,41.0,56,33,22,0.00,40.00,4,2,13,0.00
2013-6-28,87.0,76.8,55.0,48.0,38.9,26.0,65,28,11,0.00,40.00,3,2,13,0.00
2013-6-29,91.0,72.9,56.0,49.0,43.4,34.0,69,39,16,0.00,40.00,3,2,22,0.01
2013-6-30,87.0,69.9,53.0,50.0,46.6,44.0,73,47,24,0.00,40.00,3,1,7,0.01
2013-7-1,90.0,69.3,55.0,53.0,45.5,42.0,73,46,24,0.00,40.00,3,1,12,0.00
2013-7-2,92.0,72.0,53.0,59.0,45.0,35.0,73,42,20,0.00,40.00,4,2,12,0.00
2013-7-3,88.0,73.9,58.0,54.0,48.9,43.0,64,44,25,0.00,40.00,3,2,10,0.00
2013-7-4,85.0,71.3,60.0,57.0,49.6,44.0,66,48,30,0.00,40.00,4,2,17,0.00
2013-7-5,82.0,65.7,55.0,54.0,48.0,41.0,87,56,27,0.00,40.00,4,2,15,0.01
2013-7-6,76.0,56.7,48.0,51.0,45.4,41.0,100,71,30,0.00,40.00,3,2,21,0.36
2013-7-7,84.0,58.2,44.0,55.0,46.3,37.0,100,71,35,0.00,40.00,6,2,17,0.37
2013-7-8,81.0,63.9,50.0,56.0,42.6,33.0,69,49,24,0.00,40.00,7,2,19,0.01
2013-7-9,85.0,69.2,51.0,42.0,36.9,34.0,69,34,18,0.00,40.00,4,2,13,0.00
2013-7-10,89.0,77.0,55.0,40.0,27.8,-99.9,37,19,15,0.00,40.00,4,2,13,0.00
2013-7-11,81.0,65.2,51.0,50.0,45.3,35.0,93,55,21,0.00,40.00,4,2,16,0.02
2013-7-12,79.0,61.2,48.0,50.0,44.2,34.0,95,60,28,0.00,40.00,6,2,19,0.01
2013-7-13,77.0,70.7,62.0,50.0,44.5,39.0,53,39,29,0.00,40.00,6,4,17,0.00
2013-7-14,84.0,70.5,53.0,46.0,41.7,36.0,55,37,25,0.00,40.00,5,2,15,0.00
2013-7-15,86.0,73.6,56.0,46.0,39.7,31.0,49,32,18,0.00,40.00,2,2,13,0.00
2013-7-16,81.0,72.9,68.0,53.0,49.6,45.0,54,44,34,0.00,40.00,3,1,11,0.00
2013-7-17,87.0,69.1,56.0,60.0,55.6,46.0,100,68,35,0.00,40.00,3,1,10,0.04
2013-7-18,87.0,72.6,54.0,54.0,46.0,39.0,73,43,19,0.00,40.00,3,1,11,0.00
2013-7-19,88.0,78.0,60.0,45.0,38.4,33.0,57,26,15,0.00,40.00,2,2,11,0.00
2013-7-20,87.0,75.9,52.0,39.0,30.5,-99.9,51,21,15,0.00,40.00,3,2,11,0.00
2013-7-21,87.0,80.0,65.0,39.0,32.7,26.0,30,19,13,0.00,40.00,2,2,11,0.00
2013-7-22,88.0,80.5,57.0,39.0,26.8,19.0,25,15,8,0.00,40.00,4,2,15,0.00
2013-7-23,88.0,74.9,54.0,41.0,32.0,24.0,41,23,10,0.00,40.00,3,1,12,0.00
2013-7-24,84.0,70.5,53.0,51.0,39.8,27.0,51,34,21,0.00,40.00,2,1,7,0.00
2013-7-25,88.0,75.7,57.0,48.0,39.2,33.0,54,29,16,0.00,40.00,3,2,16,0.00
2013-7-26,88.0,75.4,53.0,42.0,36.7,31.0,49,26,16,0.00,40.00,4,2,10,0.00
2013-7-27,69.0,60.3,50.0,53.0,43.9,30.0,97,58,31,0.00,40.00,4,2,9,0.01
2013-7-28,78.0,59.0,46.0,50.0,45.8,38.0,97,66,35,0.00,40.00,3,2,16,0.02
2013-7-29,79.0,60.9,48.0,47.0,42.0,38.0,79,53,29,0.00,40.00,4,2,20,0.02
2013-7-30,80.0,66.4,51.0,48.0,40.7,34.0,68,42,19,0.00,40.00,6,2,21,0.00
2013-7-31,83.0,67.3,51.0,45.0,39.3,33.0,57,39,19,0.00,40.00,10,2,26,0.00
2013-8-1,84.0,67.2,53.0,50.0,42.2,35.0,88,46,22,0.00,40.00,6,2,20,0.02
2013-8-2,78.0,65.5,46.0,42.0,33.5,27.0,59,33,17,0.00,40.00,4,2,17,0.00
2013-8-3,82.0,71.3,47.0,37.0,31.6,25.0,41,24,17,0.00,40.00,3,2,10,0.00
2013-8-4,86.0,78.2,55.0,35.0,30.2,25.0,31,18,13,0.00,40.00,4,2,12,0.00
2013-8-5,88.0,82.0,68.0,34.0,28.9,21.0,27,15,9,0.00,40.00,5,3,16,0.00
2013-8-6,84.0,69.4,50.0,39.0,32.1,24.0,40,26,17,0.00,40.00,3,2,13,0.00
2013-8-7,86.0,72.2,50.0,32.0,28.2,23.0,40,22,12,0.00,40.00,3,2,11,0.00
2013-8-8,86.0,72.7,57.0,42.0,36.4,30.0,49,28,17,0.00,40.00,5,2,18,0.00
2013-8-9,83.0,62.7,51.0,48.0,37.8,30.0,82,43,20,0.00,40.00,3,1,11,0.00
2013-8-10,84.0,69.9,53.0,41.0,31.9,27.0,54,27,14,0.00,40.00,4,2,13,0.00
2013-8-11,85.0,68.0,53.0,34.0,29.8,27.0,42,25,14,0.00,40.00,6,2,19,0.00
2013-8-12,86.0,64.9,52.0,39.0,30.5,26.0,43,28,16,0.00,40.00,5,2,18,0.00
2013-8-13,84.0,66.1,50.0,40.0,30.6,-99.9,43,29,17,0.00,40.00,7,2,18,0.00
2013-8-14,86.0,67.1,50.0,36.0,29.7,-99.9,49,29,13,0.00,40.00,3,2,13,0.00
2013-8-15,91.0,63.9,56.0,26.0,-8.2,-99.9,31,8,7,0.00,40.00,3,2,13,0.00
2013-8-16,92.0,79.3,63.0,22.0,12.7,-99.9,19,10,6,0.00,40.00,3,2,13,0.00
2013-8-17,89.0,79.6,63.0,32.0,23.8,-99.9,28,14,11,0.00,40.00,4,2,17,0.00
2013-8-18,89.0,78.9,57.0,38.0,32.6,28.0,49,20,12,0.00,40.00,3,2,14,0.00
2013-8-19,89.0,70.7,62.0,34.0,10.9,-99.9,27,16,8,0.00,40.00,4,2,12,0.00
2013-8-20,89.0,71.1,60.0,42.0,30.9,-99.9,41,26,10,0.00,40.00,3,1,12,0.00
2013-8-21,81.0,63.1,52.0,55.0,45.2,33.0,100,58,30,0.00,40.00,2,2,10,0.11
2013-8-22,80.0,66.1,51.0,52.0,47.3,43.0,99,55,32,0.00,40.00,4,1,10,0.14
2013-8-23,81.0,63.3,52.0,53.0,48.3,43.0,97,64,29,0.00,40.00,7,2,24,0.33
2013-8-24,78.0,58.5,50.0,52.0,44.6,-99.9,100,67,29,0.00,40.00,5,2,18,0.09
2013-8-25,83.0,61.9,48.0,51.0,45.4,38.0,99,61,28,0.00,40.00,5,2,13,0.09
2013-8-26,78.0,63.1,52.0,55.0,50.4,38.0,100,67,37,0.00,40.00,4,2,13,0.40
2013-8-27,78.0,57.0,51.0,54.0,50.1,47.0,100,83,37,0.00,40.00,2,2,7,0.38
2013-8-28,75.0,61.8,51.0,57.0,53.7,50.0,100,79,46,0.00,40.00,4,2,12,0.41
2013-8-29,81.0,66.4,51.0,55.0,49.9,41.0,97,59,39,0.00,40.00,5,2,14,0.21
2013-8-30,85.0,73.3,62.0,50.0,42.1,35.0,47,33,26,0.00,40.00,4,3,14,0.12
2013-8-31,85.0,68.1,50.0,35.0,26.8,-99.9,41,24,13,0.00,40.00,3,2,12,0.12
2013-9-1,86.0,77.1,61.0,35.0,31.3,27.0,31,20,12,0.00,40.00,2,1,7,0.00
2013-9-2,66.0,60.1,55.0,60.0,54.1,27.0,100,84,30,0.00,40.00,5,1,12,0.15
2013-9-3,84.0,63.3,53.0,62.0,55.0,51.0,100,81,35,0.00,40.00,5,1,24,0.55
2013-9-4,80.0,62.9,53.0,61.0,55.4,53.0,100,80,42,0.00,40.00,2,1,9,0.17
2013-9-5,82.0,71.0,57.0,59.0,52.5,44.0,83,54,35,0.00,40.00,3,2,12,0.00
2013-9-6,83.0,59.1,53.0,58.0,53.4,40.0,100,86,33,0.00,40.00,5,2,18,0.21
2013-9-7,76.0,59.0,52.0,56.0,49.9,-99.9,100,77,41,0.00,40.00,3,1,9,0.10
2013-9-8,70.0,58.0,49.0,52.0,47.7,44.0,99,71,44,0.00,40.00,4,2,13,0.17
2013-9-9,71.0,54.1,45.0,50.0,44.3,38.0,100,75,34,0.00,40.00,3,1,9,0.17
2013-9-10,77.0,61.9,42.0,45.0,41.5,37.0,81,50,29,0.00,40.00,3,1,8,0.00
2013-9-11,78.0,60.5,46.0,48.0,42.2,39.0,84,55,26,0.00,40.00,2,1,14,0.00
2013-9-12,73.0,57.7,51.0,54.0,45.3,39.0,100,65,41,0.00,40.00,2,1,13,0.05
2013-9-13,78.0,58.2,49.0,52.0,46.0,41.0,100,68,33,0.00,40.00,4,1,13,0.24
2013-9-14,69.0,53.8,46.0,54.0,45.8,-99.9,100,79,47,0.00,40.00,3,1,16,0.26
2013-9-15,68.0,54.5,49.0,53.0,46.9,44.0,87,76,54,0.00,40.00,3,1,10,0.08
2013-9-16,75.0,60.1,47.0,54.0,48.7,43.0,100,70,42,0.00,40.00,5,2,14,0.22
2013-9-17,71.0,55.2,47.0,54.0,46.9,41.0,100,78,34,0.00,40.00,6,3,18,0.54
2013-9-18,50.0,43.1,33.0,47.0,42.3,33.0,100,97,82,0.00,40.00,5,2,16,0.46
2013-9-19,59.0,41.9,32.0,39.0,34.2,32.0,100,79,37,0.00,40.00,3,1,8,0.01
2013-9-20,71.0,54.3,35.0,32.0,25.0,19.0,85,40,14,0.00,40.00,4,2,14,0.00
2013-9-21,76.0,63.8,49.0,32.0,25.6,-99.9,35,25,18,0.00,40.00,7,4,21,0.00
2013-9-22,61.0,48.8,38.0,41.0,38.2,34.0,95,68,47,0.00,40.00,4,2,14,0.00
2013-9-23,61.0,45.4,35.0,40.0,33.5,29.0,97,66,34,0.00,40.00,7,2,19,0.02
2013-9-24,63.0,52.3,42.0,39.0,33.5,29.0,78,51,29,0.00,40.00,6,3,25,0.01
2013-9-25,48.0,38.2,31.0,41.0,35.6,30.0,100,92,56,0.00,40.00,5,2,19,0.38
2013-9-26,44.0,34.4,30.0,37.0,32.4,30.0,100,93,62,0.00,40.00,2,1,8,0.14
2013-9-27,38.0,33.8,32.0,36.0,32.4,30.0,100,95,83,0.00,40.00,5,2,17,0.12
2013-9-28,44.0,38.1,32.0,38.0,31.7,-99.9,100,81,61,0.00,40.00,6,4,17,0.09
2013-9-29,49.0,45.3,41.0,41.0,31.9,24.0,98,61,40,0.00,40.00,8,5,25,0.15
2013-9-30,55.0,47.0,41.0,44.0,39.3,30.0,98,76,53,0.00,40.00,10,6,30,0.27
2013-10-1,51.0,47.2,43.0,37.0,33.8,29.0,67,60,49,0.00,40.00,5,3,11,0.01
2013-10-2,54.0,41.6,31.0,38.0,31.3,26.0,100,70,45,0.00,40.00,4,2,16,0.02
2013-10-3,37.0,33.0,29.0,35.0,32.1,29.0,100,96,83,0.00,40.00,9,-46,11,0.03
2013-10-4,41.0,30.2,25.0,32.0,27.2,24.0,100,89,56,0.00,40.00,2,1,12,0.34
2013-10-5,50.0,31.5,21.0,30.0,24.8,20.0,100,79,43,0.00,40.00,2,1,10,0.20
2013-10-6,60.0,40.5,29.0,29.0,26.5,23.0,88,62,29,0.00,40.00,2,1,8,0.02
2013-10-7,66.0,54.6,33.0,31.0,28.2,15.0,50,37,24,0.00,40.00,3,2,14,0.00
2013-10-8,51.0,40.3,29.0,27.0,23.5,18.0,82,53,27,0.00,40.00,4,1,11,0.00
2013-10-9,60.0,38.4,28.0,35.0,26.6,21.0,86,67,30,0.00,40.00,3,1,12,0.00
2013-10-10,57.0,43.7,35.0,41.0,35.4,30.0,100,76,47,0.00,40.00,3,1,10,0.13
2013-10-11,47.0,36.8,30.0,38.0,28.9,21.0,100,76,40,0.00,40.00,4,1,12,0.13
2013-10-12,44.0,35.6,29.0,39.0,28.3,-99.9,99,79,52,0.00,40.00,3,2,11,0.04
2013-10-13,44.0,36.1,31.0,43.0,35.2,31.0,100,97,84,0.00,40.00,3,1,10,0.41
2013-10-14,39.0,33.0,29.0,35.0,31.9,27.0,100,96,83,0.00,40.00,2,1,10,0.12
2013-10-15,49.0,30.9,23.0,27.0,22.5,19.0,94,75,32,0.00,40.00,2,1,8,0.04
2013-10-16,44.0,33.2,24.0,26.0,23.6,20.0,87,69,47,0.00,40.00,2,1,9,0.00
2013-10-17,44.0,34.8,29.0,28.0,24.5,21.0,85,67,46,0.00,40.00,2,1,8,0.00
2013-10-18,49.0,32.5,22.0,24.0,18.1,15.0,85,59,28,0.00,40.00,3,2,9,0.00
2013-10-19,52.0,39.6,29.0,28.0,21.2,-99.9,66,52,37,0.00,40.00,4,2,11,0.00
2013-10-22,62.0,52.0,33.0,32.0,30.5,24.0,69,46,32,0.00,40.00,3,1,7,0.00
2013-10-23,64.0,55.6,44.0,27.0,25.2,23.0,46,32,21,0.00,40.00,3,1,8,0.00
2013-10-24,67.0,59.2,46.0,23.0,19.0,16.0,37,22,14,0.00,40.00,2,1,7,0.00
2013-10-25,64.0,55.0,42.0,26.0,23.9,22.0,49,32,21,0.00,40.00,2,1,8,0.00
2013-10-26,62.0,47.8,36.0,27.0,19.8,-99.9,53,37,24,0.00,40.00,2,2,8,0.00
2013-10-27,59.0,47.3,35.0,24.0,20.8,17.0,52,36,20,0.00,40.00,3,1,9,0.00
2013-10-28,49.0,40.0,32.0,33.0,23.6,-99.9,100,59,36,0.00,40.00,17,4,21,0.00
2013-10-29,37.0,33.0,30.0,34.0,32.2,30.0,100,97,85,0.00,40.00,50,4,10,0.00
2013-10-30,33.0,31.0,30.0,33.0,30.9,30.0,100,99,96,0.00,40.00,3,1,14,0.00
2013-10-31,33.0,31.5,29.0,33.0,31.2,29.0,100,99,94,0.00,40.00,4,2,15,0.01
2013-11-1,43.0,32.3,27.0,35.0,30.6,27.0,100,94,72,0.00,40.00,3,1,8,0.53
2013-11-2,52.0,43.7,33.0,32.0,24.0,-99.9,95,49,41,0.00,40.00,5,4,20,0.59
2013-11-3,38.0,28.0,18.0,30.0,22.0,15.0,91,78,62,0.00,40.00,6,3,21,0.01
2013-11-4,26.0,21.9,17.0,18.0,15.9,11.0,91,78,63,0.00,40.00,5,2,16,0.00
2013-11-5,27.0,21.7,17.0,19.0,15.9,12.0,90,79,59,0.00,40.00,3,2,13,0.00
2013-11-6,33.0,28.1,23.0,32.0,26.8,19.0,98,95,85,0.00,40.00,4,2,13,0.00
2013-11-7,39.0,34.3,32.0,35.0,32.6,30.0,100,94,75,0.00,40.00,7,3,18,0.14
2013-11-8,43.0,35.9,32.0,34.0,23.4,15.0,99,62,37,0.00,40.00,8,4,24,0.41
2013-11-9,47.0,34.7,30.0,26.0,21.1,-99.9,84,61,41,0.00,40.00,3,1,11,0.12
2013-11-10,53.0,42.5,33.0,31.0,29.8,26.0,78,63,41,0.00,40.00,1,1,8,0.07
2013-11-11,56.0,48.5,40.0,26.0,25.4,25.0,57,42,31,0.00,40.00,2,1,7,0.00
2013-11-12,59.0,53.8,45.0,17.0,15.6,15.0,29,22,18,0.00,40.00,2,1,7,0.00
2013-11-13,43.0,35.2,32.0,35.0,31.2,21.0,100,88,43,0.00,40.00,3,1,10,0.02
2013-11-14,40.0,32.8,29.0,34.0,31.7,27.0,100,96,79,0.00,40.00,2,1,7,0.13
2013-11-15,29.0,27.1,24.0,29.0,26.1,19.0,100,96,76,0.00,40.00,5,2,14,0.01
2013-11-16,27.0,24.7,20.0,26.0,21.4,-99.9,98,90,70,0.00,40.00,6,4,21,0.00
2013-11-17,31.0,24.3,17.0,24.0,18.5,13.0,88,79,71,0.00,40.00,5,4,18,0.00
2013-11-18,43.0,38.1,31.0,25.0,23.3,19.0,76,57,40,0.00,40.00,5,3,12,0.13
2013-11-19,39.0,33.4,32.0,34.0,32.0,19.0,100,95,48,0.00,40.00,5,3,19,0.09
2013-11-20,34.0,31.6,24.0,34.0,31.5,23.0,100,100,97,0.00,40.00,22,4,16,0.05
2013-11-21,29.0,16.4,8.0,23.0,13.5,4.0,97,87,68,0.00,40.00,2,1,6,0.14
2013-11-22,25.0,21.0,16.0,21.0,17.9,13.0,93,88,85,0.00,40.00,2,1,6,0.18
2013-11-23,36.0,27.1,16.0,25.0,16.6,-99.9,89,78,64,0.00,40.00,2,1,6,0.26
2013-11-24,34.0,27.7,21.0,20.0,18.3,16.0,89,68,53,0.00,40.00,1,0,4,0.09
2013-11-25,41.0,25.8,18.0,21.0,18.8,15.0,90,76,40,0.00,40.00,2,0,7,0.07
2013-11-26,42.0,34.6,30.0,24.0,22.3,21.0,74,61,49,0.00,40.00,1,0,4,0.00
2013-11-27,46.0,38.1,31.0,18.0,16.5,15.0,58,42,29,0.00,40.00,2,1,6,0.04
2013-11-28,34.0,34.0,34.0,17.0,17.0,17.0,50,50,50,0.00,40.00,0,0,3,0.00
2013-11-29,39.0,29.5,25.0,24.0,23.1,22.0,91,78,54,0.00,40.00,1,0,5,0.00
2013-11-30,37.0,31.7,30.0,30.0,23.9,-99.9,100,81,60,0.00,40.00,2,1,12,0.00
2013-12-1,34.0,32.1,30.0,34.0,32.1,30.0,100,100,100,0.00,40.00,7,4,24,0.00
2013-12-2,37.0,33.7,25.0,34.0,29.9,24.0,100,86,74,0.00,40.00,8,6,32,0.00
2013-12-3,25.0,10.9,-4.0,24.0,6.4,-10.0,97,82,74,0.00,40.00,6,2,19,0.00
2013-12-4,13.0,-5.9,-13.0,1.0,-13.5,-21.0,75,69,57,0.00,40.00,2,1,9,0.01
2013-12-5,7.0,1.4,-6.0,-6.0,-8.9,-13.0,72,61,54,0.00,40.00,1,0,7,0.00
2013-12-6,8.0,3.8,0.0,-3.0,-4.7,-7.0,75,67,57,0.00,40.00,2,1,9,0.00
2013-12-7,15.0,7.2,0.0,9.0,-0.0,-99.9,84,75,68,0.00,40.00,2,1,7,0.00
2013-12-8,6.0,-2.0,-13.0,-4.0,-10.1,-20.0,76,68,52,0.00,40.00,2,1,9,0.00
2013-12-9,5.0,-5.5,-17.0,-1.0,-13.5,-26.0,76,68,60,0.00,40.00,2,1,8,0.00
2013-12-10,16.0,7.6,2.0,7.0,1.2,-4.0,81,75,67,0.00,40.00,3,0,9,0.00
2013-12-11,15.0,8.3,3.0,11.0,4.0,-1.0,87,82,78,0.00,40.00,2,0,5,0.00
2013-12-13,23.0,18.1,15.0,19.0,14.7,12.0,91,86,81,0.00,40.00,2,1,5,0.02
2013-12-14,26.0,20.5,15.0,22.0,17.3,-99.9,98,92,84,0.00,40.00,3,1,11,0.00
2013-12-15,30.0,22.7,19.0,23.0,20.9,16.0,98,93,75,0.00,40.00,2,1,7,0.04
2013-12-16,31.0,25.8,22.0,23.0,21.3,20.0,92,83,71,0.00,40.00,1,1,4,0.13
2013-12-17,33.0,31.0,29.0,22.0,21.5,21.0,75,68,62,0.00,40.00,0,0,5,0.00
2013-12-18,44.0,33.0,27.0,22.0,20.5,18.0,77,61,39,0.00,40.00,1,1,9,0.17
2013-12-19,29.0,23.5,10.0,26.0,16.3,6.0,89,75,51,0.00,40.00,2,1,7,0.07
2013-12-20,16.0,14.2,11.0,11.0,9.2,7.0,85,81,75,0.00,40.00,2,1,9,0.00
2013-12-21,23.0,17.3,15.0,18.0,12.8,-99.9,92,85,80,0.00,40.00,3,1,10,0.00
2013-12-22,23.0,19.1,16.0,19.0,16.3,13.0,94,89,82,0.00,40.00,2,1,9,0.00
2013-12-23,32.0,26.9,21.0,32.0,26.0,19.0,100,96,92,0.00,40.00,7,1,21,0.00
2013-12-24,32.0,21.2,14.0,32.0,17.6,11.0,100,87,53,0.00,40.00,7,2,23,0.07
2013-12-25,20.0,14.9,11.0,15.0,11.2,7.0,89,85,79,0.00,40.00,2,1,6,0.07
2013-12-26,25.0,22.0,19.0,15.0,14.7,14.0,84,73,65,0.00,40.00,1,0,5,0.15
2013-12-27,35.0,35.0,35.0,16.0,16.0,16.0,46,46,46,0.00,40.00,0,0,4,0.00
2013-12-28,33.0,21.6,11.0,18.0,11.0,-99.9,86,70,49,0.00,40.00,2,1,8,0.01
2013-12-29,21.0,18.5,11.0,16.0,14.4,7.0,88,84,76,0.00,40.00,3,2,11,0.00
2013-12-30,28.0,21.3,18.0,20.0,16.0,15.0,90,80,64,0.00,40.00,2,1,7,0.00
2013-12-31,28.0,24.5,23.0,25.0,22.6,21.0,97,92,88,0.00,40.00,2,1,10,0.00
2014-1-1,25.0,20.9,13.0,23.0,18.5,10.0,97,90,80,0.00,40.00,2,1,8,0.00
2014-1-2,32.0,24.6,15.0,26.0,21.9,12.0,97,90,78,0.00,40.00,2,1,5,0.00